Location: New Frontier Mobile Home Park
(32.8448°N, 116.9675°W)
Time: 22:01:47
(UTC+00:00)

CARTOSAT-1 - Pass Details

Date: 14 July 2020
Orbit: 617 x 618 km, 97.8° (Epoch: 05 August)

Event Time Altitude Azimuth Distance (km) Brightness Sun altitude
Exits shadow 05:15:18 47° 56° (NE) 818 4.0 -23.7°
Drops below altitude 10° 05:19:04 10° 0° (N) 1,985 6.8 -24.2°
Sets 05:21:18 0° 355° (N) 2,894 7.9 -24.5°
